Location: *
(48.8667°N, 2.3331°E)
Time: 06:38:09
(UTC+00:00)

Daily predictions for brighter satellites

Satellite Brightness Start Highest point End
(mag) Time Altitude Azimuth Time Altitude Azimuth Time Altitude Azimuth
IRIDIUM 103 4.3 18:58:26 10° N 19:03:42 80° E 19:08:55 10° S
Cosmos 921 Rocket 3.7 19:00:58 10° N 19:04:52 36° ENE 19:08:45 10° SE
Cosmos 1703 3.4 19:01:35 10° N 19:05:32 60° ENE 19:09:26 10° SSE
SL-4 R/B 1.5 19:02:40 10° WSW 19:06:03 79° SSE 19:09:30 10° ENE
Cosmos 1726 2.1 19:03:14 10° S 19:06:58 86° E 19:10:43 10° N
Cosmos 1437 3.2 19:04:47 10° NNW 19:07:47 59° W 19:10:45 10° S
CZ-4C R/B 4.2 19:02:41 10° NW 19:07:58 26° NNE 19:14:00 10° ENE
Cosmos 2184 Rocket 4.0 19:01:41 10° N 19:08:00 82° E 19:14:13 10° S
ADEOS Rocket 3.7 19:02:35 10° N 19:08:50 60° WNW 19:14:30 10° SSW
Cosmos 1825 Rocket 3.6 19:04:28 10° N 19:08:53 86° E 19:13:15 10° S
Meteor 2-10 4.2 19:03:23 10° S 19:08:54 84° ESE 19:14:38 10° NNE
STARLINK-1246 4.1 19:05:41 10° WNW 19:09:46 55° NNE 19:13:52 10° E
Cosmos 407 Rocket 3.7 19:05:21 10° S 19:10:15 47° ESE 19:15:10 10° NNE
Cosmos 1908 3.5 19:07:01 10° SSE 19:10:45 47° E 19:14:30 10° NNE
STARLINK-1201 3.1 19:07:58 10° WNW 19:11:14 73° NNE 19:14:29 10° ESE
Cosmos 1340 Rocket 3.6 19:07:37 10° SSE 19:11:14 32° E 19:14:50 10° NNE
Cosmos 1656 Rocket 4.1 19:05:58 10° NNW 19:11:36 69° WSW 19:17:08 10° SSE
FREGAT/IRIS 2.3 19:09:17 10° SSE 19:11:58 65° ENE 19:14:41 10° N
Cosmos 1328 3.8 19:08:14 10° N 19:12:15 68° ENE 19:16:13 10° SSE
Cosmos 2228 3.0 19:08:57 10° S 19:13:12 61° E 19:17:31 10° NNE
STARLINK-1224 4.1 19:10:43 10° WNW 19:14:48 56° NNE 19:18:54 10° E
STARLINK-1203 4.0 19:12:50 10° WNW 19:17:01 60° NNE 19:21:10 10° E
Cosmos 1943 3.5 19:11:27 10° SW 19:17:07 74° WNW 19:22:51 10° NNE
MOS 1 4.3 19:13:42 10° SSE 19:19:21 81° ENE 19:25:03 10° NNW
STARLINK-1225 4.0 19:15:42 10° WNW 19:19:48 58° NNE 19:23:52 10° E
MetOp-A 4.5 19:15:09 10° SE 19:20:15 47° ENE 19:25:23 10° N
Resurs 01 Rocket 2.7 19:17:57 10° ESE 19:21:42 28° ENE 19:25:27 10° N
MOS 1 Rocket 4.4 19:17:37 10° NNE 19:22:22 30° E 19:27:07 10° SSE
STARLINK-52 3.6 19:19:33 10° SSW 19:22:30 35° SE 19:25:29 10° ENE
Cosmos 1758 Rocket 4.3 19:19:24 10° NNW 19:23:39 56° W 19:27:52 10° S
CZ-2C R/B 3.5 19:19:18 10° NE 19:23:43 27° E 19:28:07 10° SSE
STARLINK-1230 3.9 19:20:40 10° WNW 19:24:47 60° NNE 19:28:37 12° E
Nadezhda 1 Rocket 4.0 19:19:15 10° S 19:25:34 67° E 19:31:51 10° NNE
BREEZE M DEB (TANK) 3.9 19:23:07 10° S 19:25:48 22° ESE 19:31:04 10° ENE
Cosmos 1697 Rocket 4.5 19:24:24 10° N 19:28:20 19° NE 19:32:15 10° E
SPOT 3 Rocket 3.7 19:24:13 10° SSE 19:29:18 58° ENE 19:34:26 10° N
SL-24 R/B - RUBIN 2 4.3 19:23:53 10° SSW 19:29:27 68° SE 19:35:46 10° NE
STARLINK-1243 3.9 19:25:38 10° WNW 19:29:45 63° NNE 19:33:24 13° E
ARGOS 3.2 19:25:22 10° SSE 19:30:46 86° WSW 19:36:11 10° NNW
FALCON 9 DEB 3.5 19:27:28 10° SW 19:30:49 43° SE 19:34:09 10° ENE
Cosmos 2154 Rocket 4.0 19:24:37 10° N 19:31:02 80° E 19:37:21 10° SSE
Cosmos 1953 Rocket 3.7 19:27:27 10° NNW 19:31:58 82° W 19:36:27 10° S
Cosmos 1606 Rocket 3.7 19:28:27 10° SSW 19:32:54 80° W 19:37:25 10° N
NOSS 3-4 (A) 4.2 19:26:50 10° NW 19:33:46 69° SW 19:41:23 10° SSE
NOSS 3-4 (C) 4.2 19:26:56 10° NW 19:33:52 69° SW 19:41:30 10° SSE
GEOS 3 Rocket 4.4 19:29:12 10° SSE 19:34:10 49° SW 19:39:16 10° NW
STARLINK-1236 3.8 19:30:37 10° WNW 19:34:45 65° NNE 19:38:11 14° E
Cosmos 1954 Rocket 4.4 19:30:42 10° S 19:35:31 39° ESE 19:40:21 10° NE
USA 186 2.4 19:33:02 10° S 19:36:15 56° W 19:39:20 10° NNW
STARLINK-67 4.0 19:35:20 10° W 19:37:36 27° SW 19:39:24 13° SSE
Cosmos 1953 4.4 19:35:47 10° SW 19:39:22 32° WNW 19:43:00 10° N
Meteor 1-11 4.3 19:36:20 10° NNW 19:42:07 84° W 19:47:48 10° S
Cosmos 1818 4.4 19:38:02 10° WSW 19:43:22 55° NW 19:48:46 10° NNE
STARLINK-1269 3.7 19:40:35 10° WNW 19:44:44 71° NNE 19:47:44 18° ESE
Cosmos 1763 Rocket 4.4 19:43:46 10° N 19:48:24 32° NE 19:51:29 18° ESE
STARLINK-1200 3.7 19:45:34 10° WNW 19:49:43 74° NNE 19:52:31 20° ESE
STARLINK-1209 3.7 19:49:48 10° WNW 19:52:40 39° SW 19:54:16 21° SSE
STARLINK-1234 3.7 19:51:11 10° WNW 19:54:10 41° SW 19:55:47 22° SSE
STARLINK-1192 3.6 19:50:32 10° WNW 19:54:42 78° NNE 19:57:18 22° ESE
STARLINK-1233 3.3 19:52:00 10° WNW 19:55:05 53° SSW 19:56:39 25° SE
STARLINK-1212 3.3 19:52:29 10° WNW 19:55:33 52° SSW 19:57:04 25° SE
Cosmos 1455 4.4 19:56:32 11° ENE 19:56:32 11° ENE 19:57:10 10° ENE
STARLINK-1105 3.3 19:52:55 10° WNW 19:56:00 52° SSW 19:57:31 25° SE
STARLINK-1206 3.3 19:53:24 10° WNW 19:56:27 51° SSW 19:57:55 26° SSE
STARLINK-1247 3.3 19:53:51 10° WNW 19:56:54 51° SSW 19:58:22 26° SSE
SeaSat 1 3.8 19:52:31 10° NNE 19:57:12 43° NW 20:01:50 10° WSW
STARLINK-1227 3.4 19:54:15 10° WNW 19:57:19 51° SSW 19:58:47 26° SSE
Iridium 4 Rocket 4.0 19:54:11 10° NNE 19:57:46 26° ENE 19:59:05 22° ESE
STARLINK-1218 3.4 19:54:45 10° WNW 19:57:48 50° SSW 19:59:14 26° SSE
STARLINK-1226 3.4 19:55:11 10° WNW 19:58:14 50° SSW 19:59:40 26° SSE
Cosmos 1980 Rocket 4.0 19:54:42 10° N 19:58:29 18° NE 20:02:02 11° ENE
STARLINK-1254 3.4 19:55:37 10° WNW 19:58:41 50° SSW 20:00:06 26° SSE
STARLINK-1215 3.4 19:56:07 10° WNW 19:59:09 49° SSW 20:00:32 27° SSE
STARLINK-1231 3.4 19:56:35 10° WNW 19:59:36 48° SSW 20:00:58 27° SSE
STARLINK-1244 3.6 19:55:32 10° WNW 19:59:42 81° NNE 20:02:06 24° ESE
Cosmos 1174 4.4 19:55:47 10° NNW 19:59:46 54° NE 20:02:39 23° ESE
USA 234 4.1 19:55:01 10° ENE 20:00:13 25° SE 20:05:23 10° S
STARLINK-1232 3.4 19:57:28 10° WNW 20:00:30 48° SSW 20:01:50 27° SSE
STARLINK-1217 3.4 19:57:56 10° WNW 20:00:57 47° SSW 20:02:17 27° SSE
Cosmos 1892 3.8 19:57:40 10° N 20:01:05 28° ENE 20:02:13 24° ESE
Abrixas rocket 2.9 19:58:23 10° W 20:01:08 35° SSW 20:02:08 26° SSE
STARLINK-1208 3.5 19:58:20 10° WNW 20:01:24 47° SSW 20:02:43 27° SSE
STARLINK-1229 3.5 19:58:49 10° WNW 20:01:51 47° SSW 20:03:07 28° SSE
STARLINK-1271 3.5 19:59:16 10° WNW 20:02:18 46° SSW 20:03:34 28° SSE
STARLINK-1270 3.5 19:59:45 10° WNW 20:02:46 46° SSW 20:04:01 28° SSE
STARLINK-1154 3.5 20:00:12 10° WNW 20:03:12 45° SSW 20:04:27 28° SSE
STARLINK-1197 3.5 20:01:06 10° WNW 20:04:07 45° SSW 20:05:19 28° SSE
H-2A R/B 3.4 19:59:36 10° SSW 20:04:24 38° W 20:09:06 10° NNW
STARLINK-1189 3.5 20:01:32 10° WNW 20:04:32 44° SSW 20:05:43 28° SSE
STARLINK-1138 3.6 20:00:31 10° WNW 20:04:41 85° NNE 20:06:53 27° ESE
ATLAS 5 CENTAUR R/B 1.7 20:00:33 10° SW 20:04:45 79° NW 20:09:33 10° NE
STARLINK-1198 3.6 20:02:00 10° WNW 20:05:00 44° SSW 20:06:10 29° SSE
STARLINK-1188 3.6 20:02:26 10° WNW 20:05:25 44° SW 20:06:35 29° SSE
Cosmos 1825 4.2 20:03:22 10° NNE 20:05:27 14° ENE 20:05:39 14° ENE
ATLAS 2AS CENTAUR R/B 3.8 19:58:40 10° NW 20:05:42 44° WSW 20:12:11 10° S
STARLINK-1235 4.0 20:03:09 10° WNW 20:06:04 35° SW 20:07:18 25° S
STARLINK-1187 3.8 20:03:32 10° WNW 20:06:30 39° SW 20:07:42 27° SSE
STARLINK-1199 3.6 20:04:23 10° WNW 20:07:23 42° SW 20:08:31 29° SSE
STARLINK-1191 3.6 20:04:50 10° WNW 20:07:50 42° SW 20:08:56 29° SSE
STARLINK-1210 3.7 20:05:18 10° WNW 20:08:18 42° SW 20:09:24 29° SSE
STARLINK-1221 3.7 20:05:45 10° WNW 20:08:44 41° SW 20:09:49 29° SSE
COSMOS 2455 3.2 20:03:02 10° NW 20:09:00 66° WSW 20:13:57 15° SSE
STARLINK-1219 3.7 20:06:12 10° WNW 20:09:12 41° SW 20:10:15 29° SSE
STARLINK-1222 3.7 20:06:39 10° WNW 20:09:38 41° SW 20:10:40 29° SSE
STARLINK-1143 3.5 20:05:29 10° WNW 20:09:39 89° NE 20:11:39 30° ESE
STARLINK-1211 3.7 20:07:07 10° WNW 20:10:06 40° SW 20:11:07 30° SSE
STARLINK-1214 3.7 20:07:34 10° WNW 20:10:33 40° SW 20:11:33 30° S
STARLINK-1245 3.7 20:08:02 10° WNW 20:11:00 39° SW 20:11:58 30° S
STARLINK-1238 3.7 20:08:27 10° WNW 20:11:26 39° SW 20:12:25 30° S
Cosmos 1140 Rocket 3.7 20:07:09 10° SSW 20:12:19 74° WNW 20:17:31 10° NNE
STARLINK-1205 3.8 20:09:24 10° WNW 20:12:21 38° SW 20:13:16 30° S
STARLINK-1204 3.8 20:09:51 10° WNW 20:12:48 38° SW 20:13:42 30° S
ERBS 2.2 20:09:51 10° NW 20:13:14 78° NE 20:14:20 40° ESE
STARLINK-1241 3.5 20:10:30 10° WNW 20:14:40 86° SSW 20:16:28 33° ESE
STARLINK-29 2.9 20:14:56 10° WSW 20:18:08 82° NNW 20:19:44 27° ENE
STARLINK-1239 3.5 20:15:28 10° WNW 20:19:38 82° SSW 20:21:14 36° SE
SAR-Lupe-2 3.9 20:17:23 10° NNE 20:20:50 42° E 20:21:15 40° ESE
ATLAS CENTAUR R/B 2.8 20:17:37 10° NNW 20:20:51 23° NE 20:22:10 20° ENE
IGS 5A 4.2 20:20:27 30° E 20:21:28 35° ENE 20:25:16 10° N
Cosmos 1300 2.7 20:18:50 10° SSW 20:22:39 78° W 20:26:30 10° N
Resurs 1-3 4.1 20:18:54 12° S 20:22:53 57° W 20:27:14 10° NNW
STARLINK-1240 3.6 20:20:27 10° WNW 20:24:35 77° SSW 20:26:01 40° SE
Spot 2 Rocket 3.6 20:22:15 28° SE 20:24:48 59° ENE 20:29:49 10° N
STARLINK-60 3.8 20:22:50 10° W 20:26:02 50° NNW 20:27:47 23° NE
Cosmos 1850 Rocket 4.2 20:24:21 21° SSE 20:27:26 44° ESE 20:32:21 10° NE
Cosmos 841 Rocket 4.3 20:22:46 10° N 20:27:41 37° ENE 20:29:32 29° E
In-Cosmos 22 Rocket 4.2 20:23:09 10° N 20:29:01 82° ENE 20:32:45 23° SSE
STARLINK-1216 3.6 20:25:25 10° WNW 20:29:33 73° SSW 20:30:47 43° SE
Terra 3.2 20:29:53 21° ENE 20:30:49 23° ENE 20:34:30 10° N
Cosmos 2082 Rocket 4.2 20:34:09 12° ENE 20:34:09 12° ENE 20:34:57 10° ENE
SPOT 5 3.7 20:31:40 26° ENE 20:32:15 27° ENE 20:35:54 10° N
STPSAT 2 (USA 217) 4.4 20:28:25 10° SSW 20:32:54 80° ESE 20:37:25 10° NNE
STARLINK-1237 3.6 20:30:24 10° WNW 20:34:31 68° SSW 20:35:33 47° SE
Meteor 2-10 Rocket 4.2 20:33:52 32° ESE 20:34:39 34° E 20:39:31 10° NNE
MetOp-B 4.1 20:32:14 27° SSE 20:35:13 82° ENE 20:40:37 10° NNW
Cosmos 1833 Rocket 3.8 20:39:02 25° E 20:39:02 25° E 20:42:41 10° NE
STARLINK-1202 3.7 20:35:23 10° WNW 20:39:30 64° SSW 20:40:21 50° SSE
CARTOSAT-1 4.4 20:39:31 32° E 20:39:58 33° ENE 20:43:51 10° N
Cosmos 468 Rocket 3.9 20:35:10 10° NNW 20:40:22 89° ENE 20:42:31 36° SSE
Cosmos 192 4.4 20:36:09 10° NNW 20:41:07 75° WSW 20:43:22 33° S
SL-4 R/B 2.2 20:42:25 10° W 20:45:45 52° N 20:46:33 41° NE
Cosmos 1408 2.9 20:43:35 10° N 20:46:55 48° ENE 20:46:55 48° ENE
ERS-1 Rocket 3.3 20:47:01 41° ESE 20:48:11 49° ENE 20:53:02 10° N
STARLINK-1246 3.8 20:45:21 10° WNW 20:49:25 56° SSW 20:49:54 52° S
RESURS DK-1 2.4 20:45:39 10° NNW 20:49:47 61° ENE 20:50:15 56° E
Cosmos 1766 Rocket 4.1 20:48:27 10° N 20:52:43 41° ENE 20:52:50 41° ENE
BREEZE M DEB (TANK) 2.7 20:46:07 10° WSW 20:53:01 79° SSE 20:53:25 66° ESE
Cosmos 1570 Rocket 4.0 20:47:42 10° NNW 20:53:04 68° ENE 20:54:32 46° SE
Okean 3 Rocket 3.8 20:49:58 10° N 20:54:18 51° ENE 20:54:34 50° E
STARLINK-1224 3.9 20:50:23 10° WNW 20:54:25 52° SW 20:54:44 51° SSW
Meteor 2-12 Rocket 4.4 20:48:27 10° N 20:54:36 90° ENE 20:57:32 33° S
Cosmos 2058 3.3 20:52:02 10° NNW 20:56:06 60° W 20:57:23 39° SSW
STARLINK-1203 4.1 20:52:45 10° WNW 20:56:48 47° SW 20:57:04 46° SSW
COSMOS 2406 3.2 20:54:52 29° S 20:57:39 60° ESE 21:03:17 10° NE
CZ-4C R/B 3.3 20:51:21 10° NW 20:58:03 52° NE 21:01:49 30° E
Resurs 01 Rocket 2.9 20:55:17 18° SSW 20:58:04 36° W 21:02:10 10° NNW
STARLINK-52 3.6 20:55:25 10° W 20:58:27 54° NNW 20:58:27 54° NNW
STARLINK-1225 4.0 20:55:23 10° WNW 20:59:23 48° SW 20:59:31 48° SSW
Cosmos 2218 Rocket 4.4 20:56:53 10° NNW 21:03:00 62° W 21:07:06 22° SSW
CZ-2C R/B 3.5 20:59:17 10° N 21:04:13 46° WNW 21:09:11 10° SW
STARLINK-1230 4.2 21:00:21 10° WNW 21:04:16 45° SW 21:04:16 45° SW
Cosmos 1812 Rocket 4.0 21:02:25 24° SSW 21:04:51 58° WNW 21:09:08 10° N
Cosmos 2151 2.8 21:03:20 10° N 21:07:34 76° E 21:07:34 76° E
FALCON 9 DEB 3.8 21:04:25 10° W 21:07:51 53° NNW 21:07:53 53° NNW
STARLINK-1243 4.3 21:05:21 10° WNW 21:09:03 41° SW 21:09:03 41° SW
Cosmos 1697 Rocket 2.7 21:07:37 10° NNW 21:13:20 74° ENE 21:14:29 56° SE
Cosmos 2369 3.7 21:07:46 10° NNW 21:13:26 72° ENE 21:14:34 56° ESE
Cosmos 1741 Rocket 4.3 21:21:14 17° SW 21:25:23 68° WNW 21:30:44 10° NNE
Landsat 7 4.3 21:25:10 46° SW 21:26:07 54° W 21:30:48 10° NNW
Cosmos 1763 Rocket 4.3 21:25:29 10° NW 21:30:21 43° WSW 21:31:31 37° SW
Cosmos 1455 2.9 21:31:25 52° NNW 21:31:25 52° NNW 21:34:36 10° N
Cosmos 1656 4.2 21:26:06 10° NW 21:31:36 51° WSW 21:32:50 43° SSW
SPOT 1/Viking Rocket 3.9 21:30:44 47° SSW 21:31:53 59° W 21:37:04 10° NNW
Cosmos 1408 Rocket 4.0 21:27:38 10° N 21:31:22 54° NNE 21:31:22 54° NNE
Cosmos 540 Rocket 3.3 21:28:50 10° NNW 21:34:01 78° WSW 21:34:20 74° SSW
SL-16 R/B 3.6 21:30:14 10° NNW 21:34:58 26° NE 21:36:11 24° ENE
Cosmos 2360 Rocket 4.4 21:31:45 10° N 21:35:04 16° NE 21:37:32 12° ENE
Cosmos 2208 Rocket 4.1 21:30:23 10° NNW 21:35:34 67° WSW 21:36:03 63° SW
Cosmos 1825 3.3 21:37:36 10° NNW 21:40:28 43° NW 21:40:28 43° NW
Cosmos 2322 Rocket 3.7 21:37:18 10° N 21:41:54 25° NE 21:43:04 23° ENE
Nadezhda 3 Rocket 3.9 21:41:26 54° SSW 21:43:01 87° W 21:49:20 10° N
Cosmos 1980 Rocket 2.1 21:37:54 10° NNW 21:43:33 71° ENE 21:43:48 69° E
USA 234 3.1 21:37:21 10° ENE 21:43:56 76° SE 21:50:28 10° SW
Cosmos 2221 4.4 21:46:37 22° NE 21:46:37 22° NE 21:48:28 10° NNE
Cosmos-2242 3.6 21:45:29 52° WNW 21:45:31 52° WNW 21:49:48 10° N
Cosmos 1814 Rocket 4.1 21:40:31 10° NNW 21:45:50 65° WSW 21:46:08 64° SW
Cosmos 1535 Rocket 4.3 21:40:16 10° N 21:46:27 72° E 21:46:59 68° ESE
ASTEX 1 3.6 21:50:00 61° NE 21:50:00 61° NE 21:54:19 10° N
ATLAS 5 CENTAUR R/B 4.1 21:46:40 10° WNW 21:50:14 22° NNW 21:54:12 10° NNE
Meteor 2-3 Rocket 3.6 21:49:26 10° NNW 21:55:14 90° E 21:55:21 86° SSE
ATLAS CENTAUR R/B 3.0 21:56:16 10° NW 21:58:21 28° WNW 21:58:21 28° WNW
Mayak 0.5 22:03:02 10° NNE 22:04:58 26° NNE 22:04:58 26° NNE
Terra 2.5 22:08:45 51° WNW 22:08:45 51° WNW 22:12:54 10° NNW
SPOT 5 4.0 22:10:53 33° WNW 22:10:53 33° WNW 22:14:16 10° NNW
Cosmos 1934 Rocket 3.9 22:04:49 10° NNW 22:11:05 77° W 22:11:27 74° SW
Cosmos 2360 4.5 22:05:51 10° NW 22:11:16 59° WSW 22:11:16 59° WSW
Cosmos 2278 4.0 22:09:08 10° NW 22:14:24 58° W 22:14:24 58° W
Cosmos 2082 Rocket 2.4 22:15:56 65° NNE 22:15:56 65° NNE 22:20:45 10° NNE
Cosmos 1833 Rocket 3.2 22:20:38 50° W 22:21:37 57° WNW 22:27:12 10° NNE
Cosmos 1605 Rocket 3.9 22:23:20 10° N 22:29:21 82° WNW 22:29:21 82° WNW
Cosmos 2344 4.3 22:25:27 10° NW 22:34:58 82° SW 22:38:35 53° SSE
ALOS 2 4.4 22:36:50 27° NNE 22:36:50 27° NNE 22:39:13 10° N
CZ-4C R/B 3.2 22:39:52 10° NW 22:46:54 55° WSW 22:46:59 55° SW
Cosmos 1607 4.2 23:12:04 64° NW 23:12:04 64° NW 23:18:04 10° NE
SL-16 R/B 3.0 23:13:57 10° NNW 23:18:02 47° NW 23:18:02 47° NW
Cosmos 2360 Rocket 2.9 23:14:46 10° NNW 23:19:17 50° NNE 23:19:17 50° NNE
Cosmos 2322 Rocket 3.0 23:20:54 10° NNW 23:24:52 46° NW 23:24:52 46° NW
USA 234 3.8 23:20:28 10° ENE 23:26:48 54° NNW 23:33:08 10° W
Cosmos 1980 Rocket 4.1 23:22:52 10° NW 23:25:34 19° W 23:25:34 19° W
Cosmos 2061 Rocket 4.2 23:25:26 10° N 23:30:49 66° NNE 23:30:49 66° NNE
Cosmos 1459 Rocket 4.3 23:30:47 10° NNW 23:36:11 61° NW 23:36:11 61° NW
MOS 1-B Rocket 4.4 23:34:44 10° NNE 23:40:21 68° ENE 23:40:21 68° ENE
Mayak 1.4 23:39:52 10° NNW 23:41:32 15° NW 23:41:32 15° NW
Cosmos 2333 Rocket 3.3 23:37:18 10° NNW 23:42:25 38° NE 23:42:25 38° NE
Cosmos 2237 Rocket 4.5 23:39:09 10° N 23:43:07 19° NE 23:46:25 12° ENE
Cosmos 2233 Rocket 4.4 23:42:21 10° N 23:47:50 55° NE 23:47:50 55° NE
SL-16 R/B 4.3 23:48:43 19° E 23:50:55 23° NE 23:55:37 10° N
